Home   Weather   Toccoa   Past weeks

Flag for USA Past Weather in Toccoa, Georgia, USA — Yesterday and Last 2 Weeks

Now
53 °F

Sunny.


Feels Like: 53 °F
Forecast: 38 / 56 °F
Wind: 3 mph from South

Location: Clemson-Oconee County Airport

Current Time: Dec 3, 2016 at 12:58:23 pm

Latest Report: Dec 3, 2016 at 11:54 am


Visibility: 10 mi

Pressure: 30.26 "Hg

Humidity: 37%

Dew Point: 27 °F

Location of ToccoaLocation

Past Weather in Toccoa — Graph

°F

Toccoa Temperature Yesterday

Maximum temperature yesterday: 64 °F (at 3:54 pm)
Minimum temperature yesterday: 37 °F (at 6:54 am)
Average temperature yesterday: 51 °F

High & Low Weather Summary for the Past Weeks

 TemperatureHumidityPressure
High80 °F (Nov 18, 1:54 pm)94% (Nov 29, 9:54 pm)30.34 "Hg (Nov 29, 9:54 pm)
Low33 °F (Nov 21, 5:54 am)7% (Nov 20, 2:54 pm)29.69 "Hg (Nov 30, 4:54 pm)
Average55 °F51%30.11 "Hg
* Reported Nov 18 10:54 am — Dec 3 10:54 am, Toccoa, Weather by CustomWeather, © 2016

Note: Actual official high and low records may vary slightly from our data, if they occured in-between our weather recording intervals... More about our weather records

Advertising

Toccoa Weather History for the Previous 24 Hours

Scroll right to see more
 ConditionsComfort  
Time TempWeatherWind HumidityBarometerVisibility
10:54 am
Sat, Dec 3
51 °FSunny.6 mph44%30.28 "Hg10 mi
9:54 am48 °FSunny.No wind59%30.29 "Hg10 mi
8:54 am46 °FSunny.No wind66%30.29 "Hg10 mi
7:54 am42 °FSunny.No wind62%30.27 "Hg10 mi
6:54 am42 °FClear.3 mph68%30.24 "Hg10 mi
5:54 am42 °FClear.No wind68%30.24 "Hg10 mi
4:54 am44 °FClear.No wind63%30.21 "Hg10 mi
3:54 am45 °FClear.3 mph58%30.20 "Hg10 mi
1:54 am47 °FClear.9 mph50%30.20 "Hg10 mi
12:54 am48 °FClear.10 mph48%30.21 "Hg10 mi
11:54 pm
Fri, Dec 2
51 °FClear.6 mph41%30.22 "Hg10 mi
10:54 pm51 °FClear.9 mph41%30.22 "Hg10 mi
9:54 pm54 °FClear.7 mph35%30.21 "Hg10 mi
8:54 pm54 °FClear.8 mph35%30.21 "Hg10 mi
7:54 pm55 °FClear.9 mph33%30.21 "Hg10 mi
6:54 pm57 °FClear.10 mph29%30.19 "Hg10 mi
5:54 pm58 °FClear.9 mph27%30.17 "Hg10 mi
4:54 pm60 °FSunny.12 mph24%30.14 "Hg10 mi
3:54 pm64 °FSunny.8 mph22%30.14 "Hg10 mi
2:54 pm63 °FSunny.No wind25%30.14 "Hg10 mi
1:54 pm60 °FSunny.8 mph27%30.14 "Hg10 mi
12:54 pm58 °FSunny.No wind31%30.18 "Hg10 mi
Weather by CustomWeather, © 2016

See weather overviewHow to use our weather pages